Wind_Speed
8 8 3 8 10 13 17 21 22 22 18 14 16 15 15 16 19 22 22 24 23 17 16 16 18 19 21 23 23 22 23 25 25 25 26 29 32 34 33 33 33 35 36 38
13 12 5 5 9 14 17 21 20 20 15 12 12 14 16 18 19 21 19 21 20 17 19 17 18 20 22 23 24 24 22 25 26 26 27 28 31 34 34 34 35 36 37 39
17 15 4 4 5 10 13 17 20 23 15 8 8 15 17 18 17 18 20 19 26 29 22 19 16 19 22 26 27 26 21 23 26 26 27 27 30 33 34 34 36 37 38 38
19 11 7 5 3 6 12 18 24 20 15 10 10 13 14 15 19 21 23 25 28 29 23 17 17 20 22 25 27 26 23 24 27 29 30 29 29 32 34 35 36 38 40 40
23 13 9 8 4 5 12 17 23 18 11 9 11 13 13 15 18 21 25 23 23 26 25 19 17 19 22 24 26 26 25 25 26 28 30 29 30 31 33 35 36 38 41 42
24 13 13 11 9 7 12 15 21 18 14 11 14 15 16 17 19 19 19 22 22 22 22 16 17 21 23 26 26 26 26 26 26 29 31 31 33 33 33 35 38 39 41 43
21 16 12 11 11 9 11 16 23 26 23 17 15 15 19 21 22 23 24 24 23 21 22 20 22 22 23 25 26 26 26 26 26 29 31 32 34 35 34 34 36 39 41 43
18 14 12 12 11 12 16 20 25 27 25 20 14 16 15 19 22 23 26 28 25 24 25 27 26 23 24 25 26 27 27 27 27 29 30 31 34 36 35 34 35 37 38 41
16 15 13 14 13 15 19 23 20 21 21 19 17 14 16 16 19 21 23 24 23 24 26 27 26 26 25 25 25 26 27 27 27 29 30 30 33 36 35 34 34 35 37 38
18 15 14 13 14 15 18 19 16 17 26 21 19 15 13 15 17 19 20 20 21 22 24 25 26 26 26 25 26 26 28 27 26 28 29 30 32 35 36 35 34 34 36 36
21 18 16 15 15 16 16 18 20 22 21 20 18 18 13 13 15 16 18 20 22 23 24 27 28 28 27 26 27 28 28 28 26 27 28 30 31 34 35 35 35 34 36 35
25 22 22 19 21 21 17 17 21 24 22 17 17 17 15 13 14 16 18 20 22 25 25 26 28 28 28 29 28 28 29 29 28 26 27 29 31 33 35 35 35 34 36 36
27 28 27 23 22 20 17 20 22 25 23 15 18 20 20 18 16 17 20 22 23 26 28 28 28 27 27 29 30 30 30 29 28 27 27 28 31 33 34 34 34 34 36 37
25 27 26 22 22 27 26 25 25 26 25 20 18 18 19 21 22 20 22 25 26 28 29 29 29 28 28 27 29 30 31 30 28 27 27 27 29 32 33 35 35 34 35 36
21 23 24 26 29 27 26 23 27 27 21 17 17 20 20 21 24 25 25 26 28 30 30 31 30 29 29 29 27 30 31 31 29 28 26 26 28 30 33 35 35 35 35 36
18 19 19 21 22 24 26 30 30 26 19 18 19 24 22 24 24 25 27 29 30 31 31 31 30 28 27 28 27 28 30 31 30 28 27 26 28 29 32 35 36 35 34 35
13 22 24 25 26 28 31 30 24 21 21 23 23 25 23 24 24 26 28 31 33 33 32 31 30 28 27 27 27 27 29 31 31 28 26 25 26 29 31 34 36 36 34 34
17 18 22 25 27 27 24 23 19 19 21 20 18 24 24 24 26 29 31 33 35 34 30 30 26 26 26 26 27 27 28 30 29 28 26 24 26 29 31 33 36 37 35 34
23 21 21 22 22 23 21 19 19 19 19 20 24 26 26 25 27 29 28 31 31 28 25 24 24 24 25 26 27 27 27 28 26 26 24 24 25 28 31 33 36 37 37 36
24 20 21 21 24 24 21 21 24 25 22 26 26 27 28 31 31 27 26 24 23 25 28 28 26 24 24 25 26 27 26 25 26 27 22 22 24 26 30 33 35 36 35 34
23 20 21 23 25 26 23 20 25 28 29 30 28 30 32 32 28 23 23 25 21 25 29 27 26 26 26 26 27 27 25 28 30 25 21 21 23 27 30 33 34 36 36 36
23 22 24 23 23 22 17 20 24 21 22 24 29 29 27 14 21 26 25 24 28 29 27 27 28 27 29 29 31 32 31 31 25 23 22 23 24 27 31 34 36 37 35 37
21 22 22 23 19 19 18 20 17 16 15 16 18 17 20 24 26 26 26 28 31 31 28 27 26 26 33 34 35 31 31 24 21 23 24 26 28 29 32 35 37 36 37 38
24 22 22 19 20 22 22 20 19 18 16 14 17 17 21 24 26 28 29 29 31 30 27 26 30 34 33 36 29 22 23 26 23 22 24 26 29 32 35 36 38 37 38 39
27 26 23 23 24 23 20 19 17 17 18 20 21 22 23 25 28 29 30 30 33 32 32 33 34 34 32 29 23 19 26 25 31 26 26 30 31 34 37 38 40 40 39 42
29 29 30 30 29 24 21 19 18 22 22 22 22 23 25 27 28 30 32 30 30 35 37 36 34 32 34 31 28 29 26 30 29 31 30 32 33 36 39 41 42 42 42 44
Wind_Direction
213 251 319 17 25 26 25 14 357 357 360 6 10 2 4 6 5 0 4 2 1 357 1 15 14 5 357 357 3 5 9 4 0 352 347 347 349 352 354 354 354 353 352 351
205 237 292 337 356 29 21 1 0 354 360 8 16 5 356 345 335 343 357 2 4 4 4 11 11 2 1 6 6 5 5 1 360 354 349 350 352 354 354 357 357 355 354 353
207 237 277 242 350 19 1 1 357 349 343 359 355 353 359 1 345 337 345 355 9 9 2 1 358 356 4 11 9 4 359 359 359 359 355 354 356 356 355 356 358 358 356 353
212 238 249 246 247 6 2 2 351 347 348 352 357 354 354 344 343 344 338 346 345 356 354 352 352 352 4 10 11 5 358 354 357 0 359 357 356 357 357 357 357 357 355 355
222 235 241 270 296 342 11 354 348 350 351 5 9 349 340 338 345 347 354 354 349 356 351 354 352 350 3 7 8 3 359 357 356 0 1 360 357 358 357 358 358 357 357 357
228 242 238 265 286 321 352 350 357 358 357 4 10 356 341 349 350 357 349 10 13 1 354 356 354 358 2 7 4 1 358 359 359 360 1 2 1 358 359 359 358 357 358 359
233 237 246 266 295 321 338 345 353 352 354 351 359 357 351 354 356 355 359 2 358 6 8 6 3 1 4 9 2 357 357 360 360 359 1 3 3 0 360 360 358 357 358 0
232 237 256 285 300 312 333 340 345 345 342 339 355 354 354 357 357 358 358 354 355 4 13 11 4 2 5 7 3 356 355 358 360 358 359 1 4 3 2 2 359 357 357 359
237 251 261 276 297 312 333 337 342 345 342 335 345 357 351 353 357 3 2 354 357 6 13 11 9 4 3 3 0 358 355 356 358 357 357 359 3 4 3 3 2 359 357 359
243 254 266 277 301 315 321 329 339 335 340 341 334 339 347 345 351 357 2 354 357 1 2 360 10 10 4 358 358 356 355 353 357 356 356 356 0 3 3 2 3 2 359 359
244 260 256 268 283 293 307 320 320 323 332 335 329 324 332 330 334 345 347 350 350 353 354 353 359 4 3 358 356 354 352 351 355 354 354 355 357 1 3 1 2 3 1 359
244 255 263 272 281 287 299 309 310 312 321 325 335 322 319 315 322 331 336 339 340 343 346 347 350 355 358 357 354 353 349 349 350 352 351 354 356 359 1 1 1 2 3 360
245 260 262 267 273 283 298 308 310 315 319 310 325 325 322 312 313 319 321 325 329 335 335 340 343 346 350 353 352 351 348 347 346 347 348 352 354 355 358 -0 1 1 2 2
252 261 253 260 267 276 286 296 308 313 319 300 319 316 320 319 318 314 313 316 324 333 330 332 337 340 343 346 348 348 347 343 343 343 344 348 351 353 355 358 359 0 1 3
251 252 254 264 275 282 289 303 304 310 310 297 308 312 315 322 320 314 312 317 324 330 331 330 331 334 338 340 342 343 345 341 340 340 341 344 346 350 351 355 356 357 359 1
240 254 264 268 276 287 295 305 305 305 302 292 298 307 311 318 315 315 315 321 326 325 328 329 329 329 333 334 336 340 342 339 337 338 338 340 341 343 347 350 353 355 356 359
264 258 266 277 285 291 297 297 297 288 285 290 300 294 304 309 312 312 315 316 319 324 322 327 325 324 326 330 332 337 337 337 334 336 334 336 336 339 343 345 348 351 354 355
273 276 274 278 284 290 296 298 299 290 289 292 286 288 293 301 306 307 310 313 316 322 321 318 318 321 325 327 330 335 334 333 334 335 332 333 334 336 338 342 344 346 350 353
276 279 288 292 288 290 293 302 306 302 299 292 287 293 295 298 303 303 309 312 316 319 318 317 319 321 324 327 329 332 333 331 334 335 331 330 332 332 333 338 341 343 346 349
271 276 287 292 294 297 307 303 301 296 303 295 286 287 289 292 294 302 310 317 322 324 327 325 320 322 325 327 329 331 331 331 335 330 329 328 330 330 330 334 337 339 341 343
267 266 280 290 296 299 304 306 317 298 292 294 284 280 284 292 305 310 305 319 322 322 327 326 325 324 328 328 329 329 323 325 325 324 329 329 330 329 329 331 334 336 336 339
260 265 275 286 301 307 303 305 321 316 308 289 286 279 284 308 319 312 312 318 323 325 327 320 323 328 329 325 328 323 315 322 325 328 333 333 332 330 329 330 332 332 334 335
255 265 277 282 297 305 300 305 327 326 328 328 328 336 323 314 310 308 314 321 324 325 326 327 331 328 322 325 322 323 323 322 326 332 336 333 331 329 328 329 330 330 330 331
258 264 275 290 293 298 299 307 313 309 311 313 312 312 310 312 311 309 312 316 317 321 324 322 327 327 320 322 323 329 341 332 323 324 324 327 328 328 327 328 327 326 327 325
258 264 269 276 285 291 302 311 306 299 302 306 302 307 302 300 302 305 310 313 315 315 318 321 328 334 331 322 321 310 337 326 326 318 327 326 325 324 324 325 325 326 325 322
258 263 265 270 276 283 286 295 283 290 296 301 302 299 304 305 305 308 307 309 309 310 312 318 322 326 329 325 317 324 323 319 318 312 318 322 323 326 325 323 323 323 322 322
Height
5950 5949 5950 5951 5950 5948 5946 5944 5942 5939 5937 5935 5932 5929 5927 5924 5921 5918 5914 5912 5908 5904 5901 5896 5891 5887 5884 5878 5874 5869 5862 5859 5855 5852 5847 5841 5835 5828 5821 5815 5807 5800 5794 5786
5951 5949 5950 5951 5950 5948 5946 5944 5941 5940 5937 5936 5933 5930 5929 5925 5920 5917 5915 5912 5907 5902 5898 5893 5890 5887 5884 5879 5872 5867 5862 5858 5854 5850 5845 5839 5832 5826 5819 5811 5804 5797 5790 5782
5949 5949 5951 5952 5949 5948 5947 5945 5942 5939 5936 5935 5933 5931 5928 5925 5920 5917 5914 5910 5906 5901 5896 5892 5890 5888 5883 5877 5871 5866 5862 5858 5854 5849 5843 5837 5831 5824 5817 5809 5802 5794 5787 5779
5948 5949 5951 5951 5950 5948 5946 5945 5942 5938 5936 5934 5932 5931 5927 5922 5919 5916 5913 5910 5906 5901 5897 5893 5891 5887 5882 5876 5869 5865 5861 5857 5852 5847 5841 5835 5829 5822 5814 5807 5799 5792 5785 5776
5947 5948 5950 5950 5949 5948 5947 5945 5943 5939 5935 5934 5932 5929 5925 5921 5917 5915 5913 5908 5905 5902 5898 5894 5890 5886 5880 5873 5867 5863 5859 5854 5850 5846 5840 5834 5828 5820 5813 5805 5797 5790 5782 5773
5945 5948 5948 5948 5947 5946 5946 5945 5943 5939 5936 5934 5931 5928 5924 5919 5916 5915 5911 5908 5904 5901 5897 5893 5888 5883 5878 5871 5866 5863 5858 5853 5848 5843 5837 5831 5825 5818 5811 5803 5796 5788 5780 5771
5944 5946 5946 5946 5946 5946 5945 5944 5941 5939 5935 5933 5929 5926 5923 5920 5917 5914 5910 5906 5903 5900 5894 5890 5885 5881 5875 5869 5865 5862 5857 5851 5845 5840 5835 5829 5823 5816 5809 5802 5795 5787 5778 5770
5942 5945 5944 5944 5944 5945 5943 5942 5939 5936 5935 5932 5926 5924 5922 5919 5916 5913 5910 5906 5903 5899 5893 5888 5884 5879 5873 5867 5864 5860 5855 5849 5844 5839 5834 5827 5822 5815 5808 5801 5793 5785 5777 5769
5940 5942 5942 5942 5943 5943 5942 5940 5939 5936 5934 5930 5927 5924 5921 5918 5915 5912 5909 5907 5904 5898 5892 5888 5883 5877 5871 5866 5862 5857 5851 5846 5842 5837 5832 5826 5820 5813 5806 5799 5792 5784 5776 5768
5939 5940 5940 5940 5941 5941 5940 5939 5937 5935 5932 5928 5925 5922 5920 5917 5914 5911 5908 5905 5902 5897 5892 5888 5881 5875 5870 5865 5860 5854 5848 5844 5839 5835 5830 5824 5818 5812 5805 5798 5790 5783 5775 5767
5937 5938 5940 5939 5939 5939 5938 5937 5935 5932 5931 5926 5923 5921 5917 5914 5912 5909 5907 5904 5899 5895 5891 5887 5881 5875 5869 5864 5857 5852 5847 5842 5836 5832 5827 5822 5816 5810 5803 5796 5789 5782 5774 5766
5934 5935 5936 5937 5936 5935 5935 5934 5932 5929 5927 5924 5921 5919 5915 5913 5910 5907 5905 5901 5897 5893 5888 5884 5879 5873 5868 5862 5856 5850 5845 5841 5834 5829 5825 5819 5814 5808 5802 5795 5787 5780 5773 5765
5931 5932 5932 5932 5933 5932 5931 5930 5929 5926 5924 5921 5919 5916 5912 5910 5908 5905 5902 5899 5894 5890 5886 5881 5876 5870 5865 5860 5855 5849 5843 5838 5832 5827 5822 5816 5811 5806 5799 5793 5785 5778 5771 5764
5926 5927 5928 5930 5928 5928 5928 5927 5925 5922 5919 5917 5915 5913 5909 5906 5904 5902 5899 5896 5892 5887 5882 5877 5872 5867 5862 5857 5852 5846 5840 5835 5830 5825 5819 5812 5808 5803 5797 5791 5784 5776 5769 5762
5921 5923 5924 5924 5924 5924 5923 5922 5920 5917 5915 5914 5912 5909 5907 5903 5900 5898 5894 5891 5887 5882 5878 5873 5868 5864 5859 5854 5849 5843 5837 5832 5826 5821 5816 5810 5805 5799 5795 5788 5782 5775 5768 5760
5918 5919 5920 5920 5920 5919 5918 5917 5915 5912 5910 5909 5907 5905 5902 5900 5897 5894 5890 5886 5882 5878 5874 5869 5865 5860 5855 5850 5845 5839 5833 5828 5822 5817 5812 5807 5802 5797 5791 5786 5779 5772 5765 5759
5914 5915 5916 5916 5915 5914 5914 5911 5908 5906 5906 5905 5903 5900 5898 5895 5893 5889 5886 5882 5877 5874 5869 5865 5860 5855 5851 5846 5841 5834 5829 5823 5818 5812 5808 5803 5799 5793 5788 5782 5777 5770 5764 5757
5910 5910 5910 5910 5910 5909 5908 5905 5903 5901 5900 5899 5897 5894 5892 5891 5888 5884 5881 5877 5872 5868 5864 5859 5854 5850 5846 5841 5836 5830 5825 5820 5813 5808 5804 5799 5795 5791 5785 5779 5774 5767 5761 5754
5905 5906 5905 5905 5904 5904 5903 5901 5900 5898 5897 5895 5893 5890 5887 5885 5883 5879 5877 5872 5867 5864 5859 5854 5850 5845 5840 5836 5831 5825 5820 5815 5809 5803 5799 5795 5791 5787 5782 5776 5771 5764 5758 5751
5900 5901 5901 5900 5899 5898 5897 5895 5893 5892 5892 5889 5888 5884 5881 5878 5877 5874 5871 5866 5862 5859 5854 5849 5845 5840 5835 5831 5825 5820 5815 5810 5805 5799 5794 5790 5786 5783 5778 5773 5767 5761 5756 5750
5895 5895 5895 5895 5894 5893 5892 5890 5888 5886 5886 5880 5879 5876 5873 5872 5871 5867 5865 5861 5857 5853 5848 5844 5840 5836 5831 5825 5820 5815 5810 5806 5801 5794 5789 5785 5782 5778 5774 5769 5763 5757 5752 5747
5889 5891 5891 5891 5889 5888 5886 5885 5884 5880 5876 5874 5871 5868 5867 5865 5864 5861 5858 5854 5851 5847 5843 5839 5834 5830 5826 5821 5816 5810 5805 5800 5796 5791 5786 5782 5778 5774 5769 5764 5758 5752 5747 5742
5884 5885 5885 5887 5885 5883 5881 5880 5879 5875 5871 5869 5867 5864 5863 5861 5858 5857 5852 5848 5844 5840 5836 5833 5830 5826 5821 5815 5811 5804 5799 5795 5791 5787 5782 5778 5773 5769 5764 5758 5753 5747 5740 5735
5878 5878 5880 5880 5880 5877 5876 5876 5873 5872 5869 5866 5864 5861 5859 5855 5852 5849 5846 5843 5840 5835 5831 5828 5825 5821 5814 5808 5803 5799 5795 5791 5786 5782 5778 5773 5768 5763 5758 5753 5747 5742 5735 5729
5871 5873 5874 5874 5873 5872 5871 5870 5869 5866 5864 5861 5859 5855 5853 5851 5847 5843 5840 5836 5831 5828 5825 5822 5819 5814 5807 5802 5797 5793 5790 5786 5782 5777 5772 5767 5762 5757 5752 5746 5741 5734 5729 5722
5864 5865 5867 5867 5866 5866 5866 5865 5863 5861 5859 5856 5853 5851 5848 5844 5841 5837 5832 5830 5826 5820 5818 5816 5811 5808 5802 5797 5792 5790 5786 5781 5776 5771 5765 5761 5755 5749 5744 5738 5733 5728 5722 5715